Flag for U.S.A. Weather past 2 weeks in Gloucester, Massachusetts, U.S.A.

Now
56 °F

Clear.


Feels Like: 54 °F
Forecast: 60 / 68 °F
Wind: 7 mph from Northwest

Location: Beverly Municipal Airport

Current Time: Aug 29, 2014 at 4:12:25 AM

Latest Report: Aug 29, 2014 at 2:53 AM


Visibility: 10 mi

Pressure: 30.01 "Hg

Humidity: 75%

Dew point: 48 °F

Location of GloucesterLocation

Historic Weather in Gloucester — Graph

°F

Gloucester temperature yesterday

Maximum temperature yesterday: 79 °F (at 1:53 PM)
Minimum temperature yesterday: 62 °F (at 8:53 PM)
Average temperature yesterday: 70 °F

Past Weeks' High & Low Weather Summary

 TemperatureHumidityPressure
High89 °F (Aug 27, 3:53 PM)97% (Aug 20, 5:53 AM)30.14 "Hg (Aug 20, 5:53 AM)
Low50 °F (Aug 19, 4:53 AM)36% (Aug 28, 5:53 PM)29.65 "Hg (Aug 14, 2:53 AM)
Average67 °F71%29.95 "Hg
* Reported Aug 14 2:53 AM — Aug 29 2:53 AM, Gloucester, Weather by CustomWeather, © 2014

Note: Actual official high and low records may vary slightly from our data, if they occured in-between our weather recording intervals... More about our weather records

Advertising

Gloucester weather history for previous 24 hours

 ConditionsComfort  
Time TempWeatherWind HumidityBarometerVisibility
2:53 AM
Aug 29
56 °FClear.7 mph75%30.01 "Hg10 mi
1:53 AM57 °FClear.6 mph72%29.99 "Hg10 mi
12:53 AM59 °FClear.6 mph67%29.97 "Hg10 mi
11:53 PM
Aug 28
62 °FClear.9 mph60%29.96 "Hg10 mi
10:53 PM62 °FClear.8 mph60%29.95 "Hg10 mi
9:53 PM64 °FClear.8 mph56%29.93 "Hg10 mi
8:53 PM62 °FClear.9 mph60%29.91 "Hg10 mi
7:53 PM67 °FPassing clouds.7 mph49%29.88 "Hg10 mi
6:53 PM71 °FScattered clouds.12 mph44%29.85 "Hg10 mi
5:53 PM74 °FScattered clouds.21 mph36%29.83 "Hg10 mi
4:53 PM74 °FPartly sunny.14 mph45%29.81 "Hg10 mi
3:53 PM75 °FPartly sunny.9 mph45%29.79 "Hg10 mi
2:53 PM78 °FPartly sunny.14 mph42%29.78 "Hg10 mi
1:53 PM79 °FPartly sunny.13 mph42%29.77 "Hg10 mi
12:53 PM78 °FScattered clouds.15 mph43%29.77 "Hg10 mi
11:53 AM74 °FMostly cloudy.12 mph53%29.78 "Hg10 mi
10:53 AM77 °FScattered clouds.10 mph54%29.79 "Hg10 mi
9:53 AM74 °FSunny.12 mph57%29.80 "Hg10 mi
8:53 AM72 °FSunny.10 mph64%29.80 "Hg10 mi
7:53 AM69 °FPassing clouds.10 mph73%29.80 "Hg10 mi
6:53 AM65 °FClear.8 mph85%29.80 "Hg10 mi
5:53 AM65 °FPassing clouds.7 mph87%29.79 "Hg10 mi
4:53 AM67 °FOvercast.7 mph87%29.78 "Hg10 mi
Weather by CustomWeather, © 2014

See weather overviewHow to use our weather pages